Index of /20260428/WXO-DD/model_gdps/15km/00/042
Name Last modified Size Description
Parent Directory -
20260428T00Z_MSC_GDPS_AbsoluteVorticity_IsbL-0200_LatLon0.15_PT042H.grib2 2026-04-28 04:09 1.2M
20260428T00Z_MSC_GDPS_AbsoluteVorticity_IsbL-0250_LatLon0.15_PT042H.grib2 2026-04-28 04:09 1.3M
20260428T00Z_MSC_GDPS_AbsoluteVorticity_IsbL-0500_LatLon0.15_PT042H.grib2 2026-04-28 04:09 1.4M
20260428T00Z_MSC_GDPS_AbsoluteVorticity_IsbL-0700_LatLon0.15_PT042H.grib2 2026-04-28 04:09 1.3M
20260428T00Z_MSC_GDPS_AbsoluteVorticity_IsbL-0850_LatLon0.15_PT042H.grib2 2026-04-28 04:09 1.6M
20260428T00Z_MSC_GDPS_AirTemp-Max_AGL-2m_LatLon0.15_PT042H.grib2 2026-04-28 04:09 743K
20260428T00Z_MSC_GDPS_AirTemp-Min_AGL-2m_LatLon0.15_PT042H.grib2 2026-04-28 04:09 796K
20260428T00Z_MSC_GDPS_AirTemp_AGL-120m_LatLon0.15_PT042H.grib2 2026-04-28 04:09 915K
20260428T00Z_MSC_GDPS_AirTemp_AGL-2m_LatLon0.15_PT042H.grib2 2026-04-28 04:09 1.0M
20260428T00Z_MSC_GDPS_AirTemp_AGL-40m_LatLon0.15_PT042H.grib2 2026-04-28 04:09 818K
20260428T00Z_MSC_GDPS_AirTemp_AGL-80m_LatLon0.15_PT042H.grib2 2026-04-28 04:09 924K
20260428T00Z_MSC_GDPS_AirTemp_IsbL-0001_LatLon0.15_PT042H.grib2 2026-04-28 04:09 646K
20260428T00Z_MSC_GDPS_AirTemp_IsbL-0005_LatLon0.15_PT042H.grib2 2026-04-28 04:09 693K
20260428T00Z_MSC_GDPS_AirTemp_IsbL-0010_LatLon0.15_PT042H.grib2 2026-04-28 04:09 764K
20260428T00Z_MSC_GDPS_AirTemp_IsbL-0020_LatLon0.15_PT042H.grib2 2026-04-28 04:09 788K
20260428T00Z_MSC_GDPS_AirTemp_IsbL-0030_LatLon0.15_PT042H.grib2 2026-04-28 04:09 756K
20260428T00Z_MSC_GDPS_AirTemp_IsbL-0050_LatLon0.15_PT042H.grib2 2026-04-28 04:09 811K
20260428T00Z_MSC_GDPS_AirTemp_IsbL-0100_LatLon0.15_PT042H.grib2 2026-04-28 04:09 967K
20260428T00Z_MSC_GDPS_AirTemp_IsbL-0150_LatLon0.15_PT042H.grib2 2026-04-28 04:09 1.0M
20260428T00Z_MSC_GDPS_AirTemp_IsbL-0175_LatLon0.15_PT042H.grib2 2026-04-28 04:09 970K
20260428T00Z_MSC_GDPS_AirTemp_IsbL-0200_LatLon0.15_PT042H.grib2 2026-04-28 04:09 1.0M
20260428T00Z_MSC_GDPS_AirTemp_IsbL-0225_LatLon0.15_PT042H.grib2 2026-04-28 04:09 1.0M
20260428T00Z_MSC_GDPS_AirTemp_IsbL-0250_LatLon0.15_PT042H.grib2 2026-04-28 04:09 1.0M
20260428T00Z_MSC_GDPS_AirTemp_IsbL-0275_LatLon0.15_PT042H.grib2 2026-04-28 04:09 1.0M
20260428T00Z_MSC_GDPS_AirTemp_IsbL-0300_LatLon0.15_PT042H.grib2 2026-04-28 04:09 1.0M
20260428T00Z_MSC_GDPS_AirTemp_IsbL-0350_LatLon0.15_PT042H.grib2 2026-04-28 04:09 938K
20260428T00Z_MSC_GDPS_AirTemp_IsbL-0400_LatLon0.15_PT042H.grib2 2026-04-28 04:09 946K
20260428T00Z_MSC_GDPS_AirTemp_IsbL-0450_LatLon0.15_PT042H.grib2 2026-04-28 04:09 968K
20260428T00Z_MSC_GDPS_AirTemp_IsbL-0500_LatLon0.15_PT042H.grib2 2026-04-28 04:09 1.0M
20260428T00Z_MSC_GDPS_AirTemp_IsbL-0550_LatLon0.15_PT042H.grib2 2026-04-28 04:09 810K
20260428T00Z_MSC_GDPS_AirTemp_IsbL-0600_LatLon0.15_PT042H.grib2 2026-04-28 04:09 906K
20260428T00Z_MSC_GDPS_AirTemp_IsbL-0650_LatLon0.15_PT042H.grib2 2026-04-28 04:09 928K
20260428T00Z_MSC_GDPS_AirTemp_IsbL-0700_LatLon0.15_PT042H.grib2 2026-04-28 04:09 963K
20260428T00Z_MSC_GDPS_AirTemp_IsbL-0750_LatLon0.15_PT042H.grib2 2026-04-28 04:09 1.0M
20260428T00Z_MSC_GDPS_AirTemp_IsbL-0800_LatLon0.15_PT042H.grib2 2026-04-28 04:09 1.1M
20260428T00Z_MSC_GDPS_AirTemp_IsbL-0850_LatLon0.15_PT042H.grib2 2026-04-28 04:09 1.1M
20260428T00Z_MSC_GDPS_AirTemp_IsbL-0875_LatLon0.15_PT042H.grib2 2026-04-28 04:09 1.2M
20260428T00Z_MSC_GDPS_AirTemp_IsbL-0900_LatLon0.15_PT042H.grib2 2026-04-28 04:09 1.2M
20260428T00Z_MSC_GDPS_AirTemp_IsbL-0925_LatLon0.15_PT042H.grib2 2026-04-28 04:09 1.1M
20260428T00Z_MSC_GDPS_AirTemp_IsbL-0950_LatLon0.15_PT042H.grib2 2026-04-28 04:09 1.2M
20260428T00Z_MSC_GDPS_AirTemp_IsbL-0970_LatLon0.15_PT042H.grib2 2026-04-28 04:09 1.2M
20260428T00Z_MSC_GDPS_AirTemp_IsbL-0985_LatLon0.15_PT042H.grib2 2026-04-28 04:09 1.2M
20260428T00Z_MSC_GDPS_AirTemp_IsbL-1000_LatLon0.15_PT042H.grib2 2026-04-28 04:09 1.1M
20260428T00Z_MSC_GDPS_AirTemp_IsbL-1015_LatLon0.15_PT042H.grib2 2026-04-28 04:09 1.1M
20260428T00Z_MSC_GDPS_Albedo_Sfc_LatLon0.15_PT042H.grib2 2026-04-28 04:09 245K
20260428T00Z_MSC_GDPS_CAPE_Sfc_LatLon0.15_PT042H.grib2 2026-04-28 04:09 3.9M
20260428T00Z_MSC_GDPS_CIN_Sfc_LatLon0.15_PT042H.grib2 2026-04-28 04:09 2.8M
20260428T00Z_MSC_GDPS_CloudWater_EAtm_LatLon0.15_PT042H.grib2 2026-04-28 04:09 533K
20260428T00Z_MSC_GDPS_ConvectivePrecip-Accum_Sfc_LatLon0.15_PT042H.grib2 2026-04-28 04:09 2.9M
20260428T00Z_MSC_GDPS_DewPointDepression_AGL-2m_LatLon0.15_PT042H.grib2 2026-04-28 04:09 766K
20260428T00Z_MSC_GDPS_DewPointDepression_IsbL-0010_LatLon0.15_PT042H.grib2 2026-04-28 04:09 51K
20260428T00Z_MSC_GDPS_DewPointDepression_IsbL-0020_LatLon0.15_PT042H.grib2 2026-04-28 04:09 89K
20260428T00Z_MSC_GDPS_DewPointDepression_IsbL-0030_LatLon0.15_PT042H.grib2 2026-04-28 04:09 72K
20260428T00Z_MSC_GDPS_DewPointDepression_IsbL-0050_LatLon0.15_PT042H.grib2 2026-04-28 04:09 366K
20260428T00Z_MSC_GDPS_DewPointDepression_IsbL-0100_LatLon0.15_PT042H.grib2 2026-04-28 04:09 421K
20260428T00Z_MSC_GDPS_DewPointDepression_IsbL-0150_LatLon0.15_PT042H.grib2 2026-04-28 04:09 465K
20260428T00Z_MSC_GDPS_DewPointDepression_IsbL-0175_LatLon0.15_PT042H.grib2 2026-04-28 04:09 563K
20260428T00Z_MSC_GDPS_DewPointDepression_IsbL-0200_LatLon0.15_PT042H.grib2 2026-04-28 04:09 682K
20260428T00Z_MSC_GDPS_DewPointDepression_IsbL-0225_LatLon0.15_PT042H.grib2 2026-04-28 04:09 793K
20260428T00Z_MSC_GDPS_DewPointDepression_IsbL-0250_LatLon0.15_PT042H.grib2 2026-04-28 04:09 877K
20260428T00Z_MSC_GDPS_DewPointDepression_IsbL-0275_LatLon0.15_PT042H.grib2 2026-04-28 04:09 895K
20260428T00Z_MSC_GDPS_DewPointDepression_IsbL-0300_LatLon0.15_PT042H.grib2 2026-04-28 04:09 936K
20260428T00Z_MSC_GDPS_DewPointDepression_IsbL-0350_LatLon0.15_PT042H.grib2 2026-04-28 04:09 958K
20260428T00Z_MSC_GDPS_DewPointDepression_IsbL-0400_LatLon0.15_PT042H.grib2 2026-04-28 04:09 1.0M
20260428T00Z_MSC_GDPS_DewPointDepression_IsbL-0450_LatLon0.15_PT042H.grib2 2026-04-28 04:09 1.0M
20260428T00Z_MSC_GDPS_DewPointDepression_IsbL-0500_LatLon0.15_PT042H.grib2 2026-04-28 04:09 1.0M
20260428T00Z_MSC_GDPS_DewPointDepression_IsbL-0550_LatLon0.15_PT042H.grib2 2026-04-28 04:09 1.0M
20260428T00Z_MSC_GDPS_DewPointDepression_IsbL-0600_LatLon0.15_PT042H.grib2 2026-04-28 04:09 1.0M
20260428T00Z_MSC_GDPS_DewPointDepression_IsbL-0650_LatLon0.15_PT042H.grib2 2026-04-28 04:09 1.1M
20260428T00Z_MSC_GDPS_DewPointDepression_IsbL-0700_LatLon0.15_PT042H.grib2 2026-04-28 04:09 1.1M
20260428T00Z_MSC_GDPS_DewPointDepression_IsbL-0750_LatLon0.15_PT042H.grib2 2026-04-28 04:09 1.1M
20260428T00Z_MSC_GDPS_DewPointDepression_IsbL-0800_LatLon0.15_PT042H.grib2 2026-04-28 04:09 1.2M
20260428T00Z_MSC_GDPS_DewPointDepression_IsbL-0850_LatLon0.15_PT042H.grib2 2026-04-28 04:09 1.2M
20260428T00Z_MSC_GDPS_DewPointDepression_IsbL-0875_LatLon0.15_PT042H.grib2 2026-04-28 04:09 1.1M
20260428T00Z_MSC_GDPS_DewPointDepression_IsbL-0900_LatLon0.15_PT042H.grib2 2026-04-28 04:09 1.1M
20260428T00Z_MSC_GDPS_DewPointDepression_IsbL-0925_LatLon0.15_PT042H.grib2 2026-04-28 04:09 1.0M
20260428T00Z_MSC_GDPS_DewPointDepression_IsbL-0950_LatLon0.15_PT042H.grib2 2026-04-28 04:09 1.0M
20260428T00Z_MSC_GDPS_DewPointDepression_IsbL-0970_LatLon0.15_PT042H.grib2 2026-04-28 04:09 1.0M
20260428T00Z_MSC_GDPS_DewPointDepression_IsbL-0985_LatLon0.15_PT042H.grib2 2026-04-28 04:09 1.0M
20260428T00Z_MSC_GDPS_DewPointDepression_IsbL-1000_LatLon0.15_PT042H.grib2 2026-04-28 04:09 1.0M
20260428T00Z_MSC_GDPS_DewPointDepression_IsbL-1015_LatLon0.15_PT042H.grib2 2026-04-28 04:09 921K
20260428T00Z_MSC_GDPS_DewPoint_AGL-2m_LatLon0.15_PT042H.grib2 2026-04-28 04:09 613K
20260428T00Z_MSC_GDPS_DownwardLongwaveRadiationFlux-Accum_Sfc_LatLon0.15_PT042H.grib2 2026-04-28 04:09 754K
20260428T00Z_MSC_GDPS_DownwardShortwaveRadiationFlux-Accum_NTAtm_LatLon0.15_PT042H.grib2 2026-04-28 04:09 295K
20260428T00Z_MSC_GDPS_DownwardShortwaveRadiationFlux-Accum_Sfc_LatLon0.15_PT042H.grib2 2026-04-28 04:09 1.0M
20260428T00Z_MSC_GDPS_FreezingRain-Accum12h_Sfc_LatLon0.15_PT042H.grib2 2026-04-28 04:09 134K
20260428T00Z_MSC_GDPS_FreezingRain-Accum1h_Sfc_LatLon0.15_PT042H.grib2 2026-04-28 04:09 52K
20260428T00Z_MSC_GDPS_FreezingRain-Accum24h_Sfc_LatLon0.15_PT042H.grib2 2026-04-28 04:09 168K
20260428T00Z_MSC_GDPS_FreezingRain-Accum3h_Sfc_LatLon0.15_PT042H.grib2 2026-04-28 04:09 65K
20260428T00Z_MSC_GDPS_FreezingRain-Accum6h_Sfc_LatLon0.15_PT042H.grib2 2026-04-28 04:09 101K
20260428T00Z_MSC_GDPS_FreezingRain-Accum_Sfc_LatLon0.15_PT042H.grib2 2026-04-28 04:09 251K
20260428T00Z_MSC_GDPS_GeopotentialHeight_IsbL-0001_LatLon0.15_PT042H.grib2 2026-04-28 04:09 392K
20260428T00Z_MSC_GDPS_GeopotentialHeight_IsbL-0005_LatLon0.15_PT042H.grib2 2026-04-28 04:09 500K
20260428T00Z_MSC_GDPS_GeopotentialHeight_IsbL-0010_LatLon0.15_PT042H.grib2 2026-04-28 04:09 486K
20260428T00Z_MSC_GDPS_GeopotentialHeight_IsbL-0020_LatLon0.15_PT042H.grib2 2026-04-28 04:09 424K
20260428T00Z_MSC_GDPS_GeopotentialHeight_IsbL-0030_LatLon0.15_PT042H.grib2 2026-04-28 04:09 582K
20260428T00Z_MSC_GDPS_GeopotentialHeight_IsbL-0050_LatLon0.15_PT042H.grib2 2026-04-28 04:09 583K
20260428T00Z_MSC_GDPS_GeopotentialHeight_IsbL-0100_LatLon0.15_PT042H.grib2 2026-04-28 04:09 619K
20260428T00Z_MSC_GDPS_GeopotentialHeight_IsbL-0150_LatLon0.15_PT042H.grib2 2026-04-28 04:09 641K
20260428T00Z_MSC_GDPS_GeopotentialHeight_IsbL-0175_LatLon0.15_PT042H.grib2 2026-04-28 04:09 646K
20260428T00Z_MSC_GDPS_GeopotentialHeight_IsbL-0200_LatLon0.15_PT042H.grib2 2026-04-28 04:09 652K
20260428T00Z_MSC_GDPS_GeopotentialHeight_IsbL-0225_LatLon0.15_PT042H.grib2 2026-04-28 04:09 649K
20260428T00Z_MSC_GDPS_GeopotentialHeight_IsbL-0250_LatLon0.15_PT042H.grib2 2026-04-28 04:09 653K
20260428T00Z_MSC_GDPS_GeopotentialHeight_IsbL-0275_LatLon0.15_PT042H.grib2 2026-04-28 04:09 654K
20260428T00Z_MSC_GDPS_GeopotentialHeight_IsbL-0300_LatLon0.15_PT042H.grib2 2026-04-28 04:09 646K
20260428T00Z_MSC_GDPS_GeopotentialHeight_IsbL-0350_LatLon0.15_PT042H.grib2 2026-04-28 04:09 644K
20260428T00Z_MSC_GDPS_GeopotentialHeight_IsbL-0400_LatLon0.15_PT042H.grib2 2026-04-28 04:09 634K
20260428T00Z_MSC_GDPS_GeopotentialHeight_IsbL-0450_LatLon0.15_PT042H.grib2 2026-04-28 04:09 623K
20260428T00Z_MSC_GDPS_GeopotentialHeight_IsbL-0500_LatLon0.15_PT042H.grib2 2026-04-28 04:09 612K
20260428T00Z_MSC_GDPS_GeopotentialHeight_IsbL-0550_LatLon0.15_PT042H.grib2 2026-04-28 04:09 533K
20260428T00Z_MSC_GDPS_GeopotentialHeight_IsbL-0600_LatLon0.15_PT042H.grib2 2026-04-28 04:09 530K
20260428T00Z_MSC_GDPS_GeopotentialHeight_IsbL-0650_LatLon0.15_PT042H.grib2 2026-04-28 04:09 526K
20260428T00Z_MSC_GDPS_GeopotentialHeight_IsbL-0700_LatLon0.15_PT042H.grib2 2026-04-28 04:09 696K
20260428T00Z_MSC_GDPS_GeopotentialHeight_IsbL-0750_LatLon0.15_PT042H.grib2 2026-04-28 04:09 695K
20260428T00Z_MSC_GDPS_GeopotentialHeight_IsbL-0800_LatLon0.15_PT042H.grib2 2026-04-28 04:09 708K
20260428T00Z_MSC_GDPS_GeopotentialHeight_IsbL-0850_LatLon0.15_PT042H.grib2 2026-04-28 04:09 714K
20260428T00Z_MSC_GDPS_GeopotentialHeight_IsbL-0875_LatLon0.15_PT042H.grib2 2026-04-28 04:09 720K
20260428T00Z_MSC_GDPS_GeopotentialHeight_IsbL-0900_LatLon0.15_PT042H.grib2 2026-04-28 04:09 727K
20260428T00Z_MSC_GDPS_GeopotentialHeight_IsbL-0925_LatLon0.15_PT042H.grib2 2026-04-28 04:09 731K
20260428T00Z_MSC_GDPS_GeopotentialHeight_IsbL-0950_LatLon0.15_PT042H.grib2 2026-04-28 04:09 742K
20260428T00Z_MSC_GDPS_GeopotentialHeight_IsbL-0970_LatLon0.15_PT042H.grib2 2026-04-28 04:09 754K
20260428T00Z_MSC_GDPS_GeopotentialHeight_IsbL-0985_LatLon0.15_PT042H.grib2 2026-04-28 04:09 771K
20260428T00Z_MSC_GDPS_GeopotentialHeight_IsbL-1000_LatLon0.15_PT042H.grib2 2026-04-28 04:09 793K
20260428T00Z_MSC_GDPS_GeopotentialHeight_IsbL-1015_LatLon0.15_PT042H.grib2 2026-04-28 04:09 816K
20260428T00Z_MSC_GDPS_Humidex_Sfc_LatLon0.15_PT042H.grib2 2026-04-28 04:09 5.3M
20260428T00Z_MSC_GDPS_IcePellets-Accum12h_Sfc_LatLon0.15_PT042H.grib2 2026-04-28 04:09 21K
20260428T00Z_MSC_GDPS_IcePellets-Accum1h_Sfc_LatLon0.15_PT042H.grib2 2026-04-28 04:09 6.1K
20260428T00Z_MSC_GDPS_IcePellets-Accum24h_Sfc_LatLon0.15_PT042H.grib2 2026-04-28 04:09 36K
20260428T00Z_MSC_GDPS_IcePellets-Accum3h_Sfc_LatLon0.15_PT042H.grib2 2026-04-28 04:09 6.1K
20260428T00Z_MSC_GDPS_IcePellets-Accum6h_Sfc_LatLon0.15_PT042H.grib2 2026-04-28 04:09 11K
20260428T00Z_MSC_GDPS_IcePellets-Accum_Sfc_LatLon0.15_PT042H.grib2 2026-04-28 04:09 55K
20260428T00Z_MSC_GDPS_KIndex_Sfc_LatLon0.15_PT042H.grib2 2026-04-28 04:09 6.5M
20260428T00Z_MSC_GDPS_LatentHeatNetFlux_Sfc_LatLon0.15_PT042H.grib2 2026-04-28 04:09 517K
20260428T00Z_MSC_GDPS_LiftedIndex-MU-VT_IsbL-0500_LatLon0.15_PT042H.grib2 2026-04-28 04:09 5.3M
20260428T00Z_MSC_GDPS_NetLongwaveRadiationFlux-Accum_Sfc_LatLon0.15_PT042H.grib2 2026-04-28 04:09 1.1M
20260428T00Z_MSC_GDPS_NetShortwaveRadiationFlux-Accum_Sfc_LatLon0.15_PT042H.grib2 2026-04-28 04:09 972K
20260428T00Z_MSC_GDPS_O3MixingRatio_LatLon0.15_PT042H.grib2 2026-04-28 04:52 2.0M
20260428T00Z_MSC_GDPS_O3_EAtm_LatLon0.15_PT042H.grib2 2026-04-28 04:52 2.5M
20260428T00Z_MSC_GDPS_PlanetaryBoundaryLayerHeight_Sfc_LatLon0.15_PT042H.grib2 2026-04-28 04:09 2.4M
20260428T00Z_MSC_GDPS_Precip-Accum12h_Sfc_LatLon0.15_PT042H.grib2 2026-04-28 04:09 4.2M
20260428T00Z_MSC_GDPS_Precip-Accum1h_Sfc_LatLon0.15_PT042H.grib2 2026-04-28 04:09 3.3M
20260428T00Z_MSC_GDPS_Precip-Accum24h_Sfc_LatLon0.15_PT042H.grib2 2026-04-28 04:09 4.6M
20260428T00Z_MSC_GDPS_Precip-Accum3h_Sfc_LatLon0.15_PT042H.grib2 2026-04-28 04:09 3.6M
20260428T00Z_MSC_GDPS_Precip-Accum6h_Sfc_LatLon0.15_PT042H.grib2 2026-04-28 04:09 4.0M
20260428T00Z_MSC_GDPS_Precip-Accum_Sfc_LatLon0.15_PT042H.grib2 2026-04-28 04:09 4.8M
20260428T00Z_MSC_GDPS_PrecipRate_Sfc_LatLon0.15_PT042H.grib2 2026-04-28 04:09 3.2M
20260428T00Z_MSC_GDPS_PrecipType-Instant_Sfc_LatLon0.15_PT042H.grib2 2026-04-28 04:09 1.7M
20260428T00Z_MSC_GDPS_Pressure_MSL_LatLon0.15_PT042H.grib2 2026-04-28 04:09 730K
20260428T00Z_MSC_GDPS_Pressure_PVU-1.5_LatLon0.15_PT042H.grib2 2026-04-28 04:09 5.8M
20260428T00Z_MSC_GDPS_Pressure_PVU-1_LatLon0.15_PT042H.grib2 2026-04-28 04:09 6.0M
20260428T00Z_MSC_GDPS_Pressure_PVU-2_LatLon0.15_PT042H.grib2 2026-04-28 04:09 5.6M
20260428T00Z_MSC_GDPS_Pressure_Sfc_LatLon0.15_PT042H.grib2 2026-04-28 04:09 1.1M
20260428T00Z_MSC_GDPS_RadiativeTemp_Sfc_LatLon0.15_PT042H.grib2 2026-04-28 04:09 491K
20260428T00Z_MSC_GDPS_Rain-Accum12h_Sfc_LatLon0.15_PT042H.grib2 2026-04-28 04:09 2.8M
20260428T00Z_MSC_GDPS_Rain-Accum1h_Sfc_LatLon0.15_PT042H.grib2 2026-04-28 04:09 1.7M
20260428T00Z_MSC_GDPS_Rain-Accum24h_Sfc_LatLon0.15_PT042H.grib2 2026-04-28 04:09 3.2M
20260428T00Z_MSC_GDPS_Rain-Accum3h_Sfc_LatLon0.15_PT042H.grib2 2026-04-28 04:09 1.9M
20260428T00Z_MSC_GDPS_Rain-Accum6h_Sfc_LatLon0.15_PT042H.grib2 2026-04-28 04:09 2.5M
20260428T00Z_MSC_GDPS_Rain-Accum_Sfc_LatLon0.15_PT042H.grib2 2026-04-28 04:09 3.6M
20260428T00Z_MSC_GDPS_RelativeHumidity_AGL-2m_LatLon0.15_PT042H.grib2 2026-04-28 04:09 1.1M
20260428T00Z_MSC_GDPS_RelativeHumidity_IsbL-0010_LatLon0.15_PT042H.grib2 2026-04-28 04:09 192K
20260428T00Z_MSC_GDPS_RelativeHumidity_IsbL-0020_LatLon0.15_PT042H.grib2 2026-04-28 04:09 240K
20260428T00Z_MSC_GDPS_RelativeHumidity_IsbL-0030_LatLon0.15_PT042H.grib2 2026-04-28 04:09 267K
20260428T00Z_MSC_GDPS_RelativeHumidity_IsbL-0050_LatLon0.15_PT042H.grib2 2026-04-28 04:09 420K
20260428T00Z_MSC_GDPS_RelativeHumidity_IsbL-0100_LatLon0.15_PT042H.grib2 2026-04-28 04:09 514K
20260428T00Z_MSC_GDPS_RelativeHumidity_IsbL-0150_LatLon0.15_PT042H.grib2 2026-04-28 04:09 666K
20260428T00Z_MSC_GDPS_RelativeHumidity_IsbL-0175_LatLon0.15_PT042H.grib2 2026-04-28 04:09 787K
20260428T00Z_MSC_GDPS_RelativeHumidity_IsbL-0200_LatLon0.15_PT042H.grib2 2026-04-28 04:09 705K
20260428T00Z_MSC_GDPS_RelativeHumidity_IsbL-0225_LatLon0.15_PT042H.grib2 2026-04-28 04:09 790K
20260428T00Z_MSC_GDPS_RelativeHumidity_IsbL-0250_LatLon0.15_PT042H.grib2 2026-04-28 04:09 869K
20260428T00Z_MSC_GDPS_RelativeHumidity_IsbL-0275_LatLon0.15_PT042H.grib2 2026-04-28 04:09 891K
20260428T00Z_MSC_GDPS_RelativeHumidity_IsbL-0300_LatLon0.15_PT042H.grib2 2026-04-28 04:09 933K
20260428T00Z_MSC_GDPS_RelativeHumidity_IsbL-0350_LatLon0.15_PT042H.grib2 2026-04-28 04:09 954K
20260428T00Z_MSC_GDPS_RelativeHumidity_IsbL-0400_LatLon0.15_PT042H.grib2 2026-04-28 04:09 1.0M
20260428T00Z_MSC_GDPS_RelativeHumidity_IsbL-0450_LatLon0.15_PT042H.grib2 2026-04-28 04:09 1.0M
20260428T00Z_MSC_GDPS_RelativeHumidity_IsbL-0500_LatLon0.15_PT042H.grib2 2026-04-28 04:09 1.0M
20260428T00Z_MSC_GDPS_RelativeHumidity_IsbL-0550_LatLon0.15_PT042H.grib2 2026-04-28 04:09 1.1M
20260428T00Z_MSC_GDPS_RelativeHumidity_IsbL-0600_LatLon0.15_PT042H.grib2 2026-04-28 04:09 1.1M
20260428T00Z_MSC_GDPS_RelativeHumidity_IsbL-0650_LatLon0.15_PT042H.grib2 2026-04-28 04:09 1.1M
20260428T00Z_MSC_GDPS_RelativeHumidity_IsbL-0700_LatLon0.15_PT042H.grib2 2026-04-28 04:09 1.1M
20260428T00Z_MSC_GDPS_RelativeHumidity_IsbL-0750_LatLon0.15_PT042H.grib2 2026-04-28 04:09 1.2M
20260428T00Z_MSC_GDPS_RelativeHumidity_IsbL-0800_LatLon0.15_PT042H.grib2 2026-04-28 04:09 1.3M
20260428T00Z_MSC_GDPS_RelativeHumidity_IsbL-0850_LatLon0.15_PT042H.grib2 2026-04-28 04:09 1.3M
20260428T00Z_MSC_GDPS_RelativeHumidity_IsbL-0875_LatLon0.15_PT042H.grib2 2026-04-28 04:09 1.3M
20260428T00Z_MSC_GDPS_RelativeHumidity_IsbL-0900_LatLon0.15_PT042H.grib2 2026-04-28 04:09 1.2M
20260428T00Z_MSC_GDPS_RelativeHumidity_IsbL-0925_LatLon0.15_PT042H.grib2 2026-04-28 04:09 1.2M
20260428T00Z_MSC_GDPS_RelativeHumidity_IsbL-0950_LatLon0.15_PT042H.grib2 2026-04-28 04:09 1.2M
20260428T00Z_MSC_GDPS_RelativeHumidity_IsbL-0970_LatLon0.15_PT042H.grib2 2026-04-28 04:09 1.2M
20260428T00Z_MSC_GDPS_RelativeHumidity_IsbL-0985_LatLon0.15_PT042H.grib2 2026-04-28 04:09 1.2M
20260428T00Z_MSC_GDPS_RelativeHumidity_IsbL-1000_LatLon0.15_PT042H.grib2 2026-04-28 04:09 1.1M
20260428T00Z_MSC_GDPS_RelativeHumidity_IsbL-1015_LatLon0.15_PT042H.grib2 2026-04-28 04:09 1.1M
20260428T00Z_MSC_GDPS_RelativeVorticity_IsbL-0200_LatLon0.15_PT042H.grib2 2026-04-28 04:09 1.5M
20260428T00Z_MSC_GDPS_RelativeVorticity_IsbL-0250_LatLon0.15_PT042H.grib2 2026-04-28 04:09 1.3M
20260428T00Z_MSC_GDPS_RelativeVorticity_IsbL-0500_LatLon0.15_PT042H.grib2 2026-04-28 04:09 1.4M
20260428T00Z_MSC_GDPS_RelativeVorticity_IsbL-0700_LatLon0.15_PT042H.grib2 2026-04-28 04:09 1.3M
20260428T00Z_MSC_GDPS_RelativeVorticity_IsbL-0850_LatLon0.15_PT042H.grib2 2026-04-28 04:09 1.6M
20260428T00Z_MSC_GDPS_Runoff-Accum_Sfc_LatLon0.15_PT042H.grib2 2026-04-28 04:09 118K
20260428T00Z_MSC_GDPS_SensibleHeatNetFlux_Sfc_LatLon0.15_PT042H.grib2 2026-04-28 04:09 632K
20260428T00Z_MSC_GDPS_ShowalterIndex_IsbL-0500_LatLon0.15_PT042H.grib2 2026-04-28 04:09 6.2M
20260428T00Z_MSC_GDPS_Snow-Accum12h_Sfc_LatLon0.15_PT042H.grib2 2026-04-28 04:09 1.5M
20260428T00Z_MSC_GDPS_Snow-Accum1h_Sfc_LatLon0.15_PT042H.grib2 2026-04-28 04:09 1.3M
20260428T00Z_MSC_GDPS_Snow-Accum24h_Sfc_LatLon0.15_PT042H.grib2 2026-04-28 04:09 1.7M
20260428T00Z_MSC_GDPS_Snow-Accum3h_Sfc_LatLon0.15_PT042H.grib2 2026-04-28 04:09 1.1M
20260428T00Z_MSC_GDPS_Snow-Accum6h_Sfc_LatLon0.15_PT042H.grib2 2026-04-28 04:09 1.5M
20260428T00Z_MSC_GDPS_Snow-Accum_Sfc_LatLon0.15_PT042H.grib2 2026-04-28 04:09 1.9M
20260428T00Z_MSC_GDPS_SnowDensity_Sfc_LatLon0.15_PT042H.grib2 2026-04-28 04:09 265K
20260428T00Z_MSC_GDPS_SnowDepth_Sfc_LatLon0.15_PT042H.grib2 2026-04-28 04:09 1.7M
20260428T00Z_MSC_GDPS_SoilTemp_DBS-0to10cm_LatLon0.15_PT042H.grib2 2026-04-28 04:09 502K
20260428T00Z_MSC_GDPS_SoilTemp_Sfc_LatLon0.15_PT042H.grib2 2026-04-28 04:09 580K
20260428T00Z_MSC_GDPS_SoilVolumetricIceContent_Sfc_LatLon0.15_PT042H.grib2 2026-04-28 04:09 209K
20260428T00Z_MSC_GDPS_SoilVolumetricWaterContent_DBS-0to10cm_LatLon0.15_PT042H.grib2 2026-04-28 04:09 580K
20260428T00Z_MSC_GDPS_SoilVolumetricWaterContent_DBS-0to1cm_LatLon0.15_PT042H.grib2 2026-04-28 04:09 646K
20260428T00Z_MSC_GDPS_SpecificHumidity_AGL-120m_LatLon0.15_PT042H.grib2 2026-04-28 04:09 1.1M
20260428T00Z_MSC_GDPS_SpecificHumidity_AGL-2m_LatLon0.15_PT042H.grib2 2026-04-28 04:09 1.2M
20260428T00Z_MSC_GDPS_SpecificHumidity_AGL-40m_LatLon0.15_PT042H.grib2 2026-04-28 04:09 1.1M
20260428T00Z_MSC_GDPS_SpecificHumidity_AGL-80m_LatLon0.15_PT042H.grib2 2026-04-28 04:09 1.1M
20260428T00Z_MSC_GDPS_SpecificHumidity_IsbL-0001_LatLon0.15_PT042H.grib2 2026-04-28 04:09 1.3M
20260428T00Z_MSC_GDPS_SpecificHumidity_IsbL-0005_LatLon0.15_PT042H.grib2 2026-04-28 04:09 1.2M
20260428T00Z_MSC_GDPS_SpecificHumidity_IsbL-0010_LatLon0.15_PT042H.grib2 2026-04-28 04:09 1.3M
20260428T00Z_MSC_GDPS_SpecificHumidity_IsbL-0020_LatLon0.15_PT042H.grib2 2026-04-28 04:09 1.4M
20260428T00Z_MSC_GDPS_SpecificHumidity_IsbL-0030_LatLon0.15_PT042H.grib2 2026-04-28 04:09 1.4M
20260428T00Z_MSC_GDPS_SpecificHumidity_IsbL-0050_LatLon0.15_PT042H.grib2 2026-04-28 04:09 1.4M
20260428T00Z_MSC_GDPS_SpecificHumidity_IsbL-0100_LatLon0.15_PT042H.grib2 2026-04-28 04:09 1.4M
20260428T00Z_MSC_GDPS_SpecificHumidity_IsbL-0150_LatLon0.15_PT042H.grib2 2026-04-28 04:09 1.2M
20260428T00Z_MSC_GDPS_SpecificHumidity_IsbL-0175_LatLon0.15_PT042H.grib2 2026-04-28 04:09 1.3M
20260428T00Z_MSC_GDPS_SpecificHumidity_IsbL-0200_LatLon0.15_PT042H.grib2 2026-04-28 04:09 1.3M
20260428T00Z_MSC_GDPS_SpecificHumidity_IsbL-0225_LatLon0.15_PT042H.grib2 2026-04-28 04:09 1.3M
20260428T00Z_MSC_GDPS_SpecificHumidity_IsbL-0250_LatLon0.15_PT042H.grib2 2026-04-28 04:09 1.5M
20260428T00Z_MSC_GDPS_SpecificHumidity_IsbL-0275_LatLon0.15_PT042H.grib2 2026-04-28 04:09 1.3M
20260428T00Z_MSC_GDPS_SpecificHumidity_IsbL-0300_LatLon0.15_PT042H.grib2 2026-04-28 04:09 1.5M
20260428T00Z_MSC_GDPS_SpecificHumidity_IsbL-0350_LatLon0.15_PT042H.grib2 2026-04-28 04:09 1.2M
20260428T00Z_MSC_GDPS_SpecificHumidity_IsbL-0400_LatLon0.15_PT042H.grib2 2026-04-28 04:09 1.5M
20260428T00Z_MSC_GDPS_SpecificHumidity_IsbL-0450_LatLon0.15_PT042H.grib2 2026-04-28 04:09 1.6M
20260428T00Z_MSC_GDPS_SpecificHumidity_IsbL-0500_LatLon0.15_PT042H.grib2 2026-04-28 04:09 1.4M
20260428T00Z_MSC_GDPS_SpecificHumidity_IsbL-0550_LatLon0.15_PT042H.grib2 2026-04-28 04:09 1.6M
20260428T00Z_MSC_GDPS_SpecificHumidity_IsbL-0600_LatLon0.15_PT042H.grib2 2026-04-28 04:09 1.7M
20260428T00Z_MSC_GDPS_SpecificHumidity_IsbL-0650_LatLon0.15_PT042H.grib2 2026-04-28 04:09 1.5M
20260428T00Z_MSC_GDPS_SpecificHumidity_IsbL-0700_LatLon0.15_PT042H.grib2 2026-04-28 04:09 1.6M
20260428T00Z_MSC_GDPS_SpecificHumidity_IsbL-0750_LatLon0.15_PT042H.grib2 2026-04-28 04:09 1.7M
20260428T00Z_MSC_GDPS_SpecificHumidity_IsbL-0800_LatLon0.15_PT042H.grib2 2026-04-28 04:09 1.8M
20260428T00Z_MSC_GDPS_SpecificHumidity_IsbL-0850_LatLon0.15_PT042H.grib2 2026-04-28 04:09 1.9M
20260428T00Z_MSC_GDPS_SpecificHumidity_IsbL-0875_LatLon0.15_PT042H.grib2 2026-04-28 04:09 1.9M
20260428T00Z_MSC_GDPS_SpecificHumidity_IsbL-0900_LatLon0.15_PT042H.grib2 2026-04-28 04:09 1.9M
20260428T00Z_MSC_GDPS_SpecificHumidity_IsbL-0925_LatLon0.15_PT042H.grib2 2026-04-28 04:09 1.6M
20260428T00Z_MSC_GDPS_SpecificHumidity_IsbL-0950_LatLon0.15_PT042H.grib2 2026-04-28 04:09 1.6M
20260428T00Z_MSC_GDPS_SpecificHumidity_IsbL-0970_LatLon0.15_PT042H.grib2 2026-04-28 04:09 1.5M
20260428T00Z_MSC_GDPS_SpecificHumidity_IsbL-0985_LatLon0.15_PT042H.grib2 2026-04-28 04:09 1.5M
20260428T00Z_MSC_GDPS_SpecificHumidity_IsbL-1000_LatLon0.15_PT042H.grib2 2026-04-28 04:09 1.5M
20260428T00Z_MSC_GDPS_SpecificHumidity_IsbL-1015_LatLon0.15_PT042H.grib2 2026-04-28 04:09 1.5M
20260428T00Z_MSC_GDPS_SpecificHumidity_Sfc_LatLon0.15_PT042H.grib2 2026-04-28 04:09 665K
20260428T00Z_MSC_GDPS_Thickness_IsbL-0850to0700_LatLon0.15_PT042H.grib2 2026-04-28 04:09 472K
20260428T00Z_MSC_GDPS_Thickness_IsbL-1000to0500_LatLon0.15_PT042H.grib2 2026-04-28 04:09 378K
20260428T00Z_MSC_GDPS_Thickness_IsbL-1000to0850_LatLon0.15_PT042H.grib2 2026-04-28 04:09 494K
20260428T00Z_MSC_GDPS_TotalCloudCover_Sfc_LatLon0.15_PT042H.grib2 2026-04-28 04:09 829K
20260428T00Z_MSC_GDPS_TotalTotalsIndex_Sfc_LatLon0.15_PT042H.grib2 2026-04-28 04:09 6.2M
20260428T00Z_MSC_GDPS_UVIndex-ClearSky-Max24h_Sfc_LatLon0.15_PT042H.grib2 2026-04-28 04:52 2.2M
20260428T00Z_MSC_GDPS_UVIndex-ClearSky_Sfc_LatLon0.15_PT042H.grib2 2026-04-28 04:52 1.0M
20260428T00Z_MSC_GDPS_UVIndex-Max24h_Sfc_LatLon0.15_PT042H.grib2 2026-04-28 04:52 3.2M
20260428T00Z_MSC_GDPS_UVIndex_Sfc_LatLon0.15_PT042H.grib2 2026-04-28 04:52 1.5M
20260428T00Z_MSC_GDPS_UpwardLongwaveRadiationFlux_NTAtm_LatLon0.15_PT042H.grib2 2026-04-28 04:09 844K
20260428T00Z_MSC_GDPS_VerticalVelocity_IsbL-0200_LatLon0.15_PT042H.grib2 2026-04-28 04:09 945K
20260428T00Z_MSC_GDPS_VerticalVelocity_IsbL-0250_LatLon0.15_PT042H.grib2 2026-04-28 04:09 1.1M
20260428T00Z_MSC_GDPS_VerticalVelocity_IsbL-0500_LatLon0.15_PT042H.grib2 2026-04-28 04:09 1.0M
20260428T00Z_MSC_GDPS_VerticalVelocity_IsbL-0600_LatLon0.15_PT042H.grib2 2026-04-28 04:09 1.1M
20260428T00Z_MSC_GDPS_VerticalVelocity_IsbL-0700_LatLon0.15_PT042H.grib2 2026-04-28 04:09 1.1M
20260428T00Z_MSC_GDPS_VerticalVelocity_IsbL-0850_LatLon0.15_PT042H.grib2 2026-04-28 04:09 1.3M
20260428T00Z_MSC_GDPS_WindChill_Sfc_LatLon0.15_PT042H.grib2 2026-04-28 04:09 5.3M
20260428T00Z_MSC_GDPS_WindDir_AGL-10m_LatLon0.15_PT042H.grib2 2026-04-28 04:09 1.3M
20260428T00Z_MSC_GDPS_WindDir_AGL-120m_LatLon0.15_PT042H.grib2 2026-04-28 04:09 1.4M
20260428T00Z_MSC_GDPS_WindDir_AGL-40m_LatLon0.15_PT042H.grib2 2026-04-28 04:09 1.4M
20260428T00Z_MSC_GDPS_WindDir_AGL-80m_LatLon0.15_PT042H.grib2 2026-04-28 04:09 1.4M
20260428T00Z_MSC_GDPS_WindDir_IsbL-0001_LatLon0.15_PT042H.grib2 2026-04-28 04:09 665K
20260428T00Z_MSC_GDPS_WindDir_IsbL-0005_LatLon0.15_PT042H.grib2 2026-04-28 04:09 793K
20260428T00Z_MSC_GDPS_WindDir_IsbL-0010_LatLon0.15_PT042H.grib2 2026-04-28 04:09 840K
20260428T00Z_MSC_GDPS_WindDir_IsbL-0020_LatLon0.15_PT042H.grib2 2026-04-28 04:09 937K
20260428T00Z_MSC_GDPS_WindDir_IsbL-0030_LatLon0.15_PT042H.grib2 2026-04-28 04:09 920K
20260428T00Z_MSC_GDPS_WindDir_IsbL-0050_LatLon0.15_PT042H.grib2 2026-04-28 04:09 950K
20260428T00Z_MSC_GDPS_WindDir_IsbL-0100_LatLon0.15_PT042H.grib2 2026-04-28 04:09 1.0M
20260428T00Z_MSC_GDPS_WindDir_IsbL-0150_LatLon0.15_PT042H.grib2 2026-04-28 04:09 1.0M
20260428T00Z_MSC_GDPS_WindDir_IsbL-0175_LatLon0.15_PT042H.grib2 2026-04-28 04:09 1.0M
20260428T00Z_MSC_GDPS_WindDir_IsbL-0200_LatLon0.15_PT042H.grib2 2026-04-28 04:09 1.1M
20260428T00Z_MSC_GDPS_WindDir_IsbL-0225_LatLon0.15_PT042H.grib2 2026-04-28 04:09 1.1M
20260428T00Z_MSC_GDPS_WindDir_IsbL-0250_LatLon0.15_PT042H.grib2 2026-04-28 04:09 1.1M
20260428T00Z_MSC_GDPS_WindDir_IsbL-0275_LatLon0.15_PT042H.grib2 2026-04-28 04:09 1.2M
20260428T00Z_MSC_GDPS_WindDir_IsbL-0300_LatLon0.15_PT042H.grib2 2026-04-28 04:09 1.2M
20260428T00Z_MSC_GDPS_WindDir_IsbL-0350_LatLon0.15_PT042H.grib2 2026-04-28 04:09 1.2M
20260428T00Z_MSC_GDPS_WindDir_IsbL-0400_LatLon0.15_PT042H.grib2 2026-04-28 04:09 1.3M
20260428T00Z_MSC_GDPS_WindDir_IsbL-0450_LatLon0.15_PT042H.grib2 2026-04-28 04:09 1.3M
20260428T00Z_MSC_GDPS_WindDir_IsbL-0500_LatLon0.15_PT042H.grib2 2026-04-28 04:09 1.3M
20260428T00Z_MSC_GDPS_WindDir_IsbL-0550_LatLon0.15_PT042H.grib2 2026-04-28 04:09 1.4M
20260428T00Z_MSC_GDPS_WindDir_IsbL-0600_LatLon0.15_PT042H.grib2 2026-04-28 04:09 1.4M
20260428T00Z_MSC_GDPS_WindDir_IsbL-0650_LatLon0.15_PT042H.grib2 2026-04-28 04:09 1.5M
20260428T00Z_MSC_GDPS_WindDir_IsbL-0700_LatLon0.15_PT042H.grib2 2026-04-28 04:09 1.6M
20260428T00Z_MSC_GDPS_WindDir_IsbL-0750_LatLon0.15_PT042H.grib2 2026-04-28 04:09 1.7M
20260428T00Z_MSC_GDPS_WindDir_IsbL-0800_LatLon0.15_PT042H.grib2 2026-04-28 04:09 1.8M
20260428T00Z_MSC_GDPS_WindDir_IsbL-0850_LatLon0.15_PT042H.grib2 2026-04-28 04:09 1.9M
20260428T00Z_MSC_GDPS_WindDir_IsbL-0875_LatLon0.15_PT042H.grib2 2026-04-28 04:09 2.0M
20260428T00Z_MSC_GDPS_WindDir_IsbL-0900_LatLon0.15_PT042H.grib2 2026-04-28 04:09 2.0M
20260428T00Z_MSC_GDPS_WindDir_IsbL-0925_LatLon0.15_PT042H.grib2 2026-04-28 04:09 2.0M
20260428T00Z_MSC_GDPS_WindDir_IsbL-0950_LatLon0.15_PT042H.grib2 2026-04-28 04:09 2.0M
20260428T00Z_MSC_GDPS_WindDir_IsbL-0970_LatLon0.15_PT042H.grib2 2026-04-28 04:09 2.0M
20260428T00Z_MSC_GDPS_WindDir_IsbL-0985_LatLon0.15_PT042H.grib2 2026-04-28 04:09 2.0M
20260428T00Z_MSC_GDPS_WindDir_IsbL-1000_LatLon0.15_PT042H.grib2 2026-04-28 04:09 2.1M
20260428T00Z_MSC_GDPS_WindDir_IsbL-1015_LatLon0.15_PT042H.grib2 2026-04-28 04:09 2.1M
20260428T00Z_MSC_GDPS_WindGust-Max_AGL-10m_LatLon0.15_PT042H.grib2 2026-04-28 04:09 2.2M
20260428T00Z_MSC_GDPS_WindGust-Min_AGL-10m_LatLon0.15_PT042H.grib2 2026-04-28 04:09 2.1M
20260428T00Z_MSC_GDPS_WindGust_AGL-10m_LatLon0.15_PT042H.grib2 2026-04-28 04:09 2.1M
20260428T00Z_MSC_GDPS_WindSpeed_AGL-10m_LatLon0.15_PT042H.grib2 2026-04-28 04:09 1.1M
20260428T00Z_MSC_GDPS_WindSpeed_AGL-120m_LatLon0.15_PT042H.grib2 2026-04-28 04:09 1.3M
20260428T00Z_MSC_GDPS_WindSpeed_AGL-40m_LatLon0.15_PT042H.grib2 2026-04-28 04:09 1.3M
20260428T00Z_MSC_GDPS_WindSpeed_AGL-80m_LatLon0.15_PT042H.grib2 2026-04-28 04:09 1.3M
20260428T00Z_MSC_GDPS_WindSpeed_IsbL-0001_LatLon0.15_PT042H.grib2 2026-04-28 04:09 644K
20260428T00Z_MSC_GDPS_WindSpeed_IsbL-0005_LatLon0.15_PT042H.grib2 2026-04-28 04:09 699K
20260428T00Z_MSC_GDPS_WindSpeed_IsbL-0010_LatLon0.15_PT042H.grib2 2026-04-28 04:09 632K
20260428T00Z_MSC_GDPS_WindSpeed_IsbL-0020_LatLon0.15_PT042H.grib2 2026-04-28 04:09 671K
20260428T00Z_MSC_GDPS_WindSpeed_IsbL-0030_LatLon0.15_PT042H.grib2 2026-04-28 04:09 868K
20260428T00Z_MSC_GDPS_WindSpeed_IsbL-0050_LatLon0.15_PT042H.grib2 2026-04-28 04:09 912K
20260428T00Z_MSC_GDPS_WindSpeed_IsbL-0100_LatLon0.15_PT042H.grib2 2026-04-28 04:09 1.1M
20260428T00Z_MSC_GDPS_WindSpeed_IsbL-0150_LatLon0.15_PT042H.grib2 2026-04-28 04:09 1.0M
20260428T00Z_MSC_GDPS_WindSpeed_IsbL-0175_LatLon0.15_PT042H.grib2 2026-04-28 04:09 1.0M
20260428T00Z_MSC_GDPS_WindSpeed_IsbL-0200_LatLon0.15_PT042H.grib2 2026-04-28 04:09 1.1M
20260428T00Z_MSC_GDPS_WindSpeed_IsbL-0225_LatLon0.15_PT042H.grib2 2026-04-28 04:09 1.1M
20260428T00Z_MSC_GDPS_WindSpeed_IsbL-0250_LatLon0.15_PT042H.grib2 2026-04-28 04:09 1.1M
20260428T00Z_MSC_GDPS_WindSpeed_IsbL-0275_LatLon0.15_PT042H.grib2 2026-04-28 04:09 1.1M
20260428T00Z_MSC_GDPS_WindSpeed_IsbL-0300_LatLon0.15_PT042H.grib2 2026-04-28 04:09 1.1M
20260428T00Z_MSC_GDPS_WindSpeed_IsbL-0350_LatLon0.15_PT042H.grib2 2026-04-28 04:09 1.1M
20260428T00Z_MSC_GDPS_WindSpeed_IsbL-0400_LatLon0.15_PT042H.grib2 2026-04-28 04:09 1.1M
20260428T00Z_MSC_GDPS_WindSpeed_IsbL-0450_LatLon0.15_PT042H.grib2 2026-04-28 04:09 1.1M
20260428T00Z_MSC_GDPS_WindSpeed_IsbL-0500_LatLon0.15_PT042H.grib2 2026-04-28 04:09 1.1M
20260428T00Z_MSC_GDPS_WindSpeed_IsbL-0550_LatLon0.15_PT042H.grib2 2026-04-28 04:09 1.1M
20260428T00Z_MSC_GDPS_WindSpeed_IsbL-0600_LatLon0.15_PT042H.grib2 2026-04-28 04:09 1.1M
20260428T00Z_MSC_GDPS_WindSpeed_IsbL-0650_LatLon0.15_PT042H.grib2 2026-04-28 04:09 1.5M
20260428T00Z_MSC_GDPS_WindSpeed_IsbL-0700_LatLon0.15_PT042H.grib2 2026-04-28 04:09 1.5M
20260428T00Z_MSC_GDPS_WindSpeed_IsbL-0750_LatLon0.15_PT042H.grib2 2026-04-28 04:09 1.6M
20260428T00Z_MSC_GDPS_WindSpeed_IsbL-0800_LatLon0.15_PT042H.grib2 2026-04-28 04:09 1.7M
20260428T00Z_MSC_GDPS_WindSpeed_IsbL-0850_LatLon0.15_PT042H.grib2 2026-04-28 04:09 1.8M
20260428T00Z_MSC_GDPS_WindSpeed_IsbL-0875_LatLon0.15_PT042H.grib2 2026-04-28 04:09 1.8M
20260428T00Z_MSC_GDPS_WindSpeed_IsbL-0900_LatLon0.15_PT042H.grib2 2026-04-28 04:09 1.8M
20260428T00Z_MSC_GDPS_WindSpeed_IsbL-0925_LatLon0.15_PT042H.grib2 2026-04-28 04:09 1.8M
20260428T00Z_MSC_GDPS_WindSpeed_IsbL-0950_LatLon0.15_PT042H.grib2 2026-04-28 04:09 1.8M
20260428T00Z_MSC_GDPS_WindSpeed_IsbL-0970_LatLon0.15_PT042H.grib2 2026-04-28 04:09 1.9M
20260428T00Z_MSC_GDPS_WindSpeed_IsbL-0985_LatLon0.15_PT042H.grib2 2026-04-28 04:09 1.9M
20260428T00Z_MSC_GDPS_WindSpeed_IsbL-1000_LatLon0.15_PT042H.grib2 2026-04-28 04:09 1.9M
20260428T00Z_MSC_GDPS_WindSpeed_IsbL-1015_LatLon0.15_PT042H.grib2 2026-04-28 04:09 1.8M
20260428T00Z_MSC_GDPS_WindU_AGL-10m_LatLon0.15_PT042H.grib2 2026-04-28 04:09 1.3M
20260428T00Z_MSC_GDPS_WindU_AGL-120m_LatLon0.15_PT042H.grib2 2026-04-28 04:09 1.0M
20260428T00Z_MSC_GDPS_WindU_AGL-40m_LatLon0.15_PT042H.grib2 2026-04-28 04:09 1.0M
20260428T00Z_MSC_GDPS_WindU_AGL-80m_LatLon0.15_PT042H.grib2 2026-04-28 04:09 1.0M
20260428T00Z_MSC_GDPS_WindU_IsbL-0001_LatLon0.15_PT042H.grib2 2026-04-28 04:09 503K
20260428T00Z_MSC_GDPS_WindU_IsbL-0005_LatLon0.15_PT042H.grib2 2026-04-28 04:09 698K
20260428T00Z_MSC_GDPS_WindU_IsbL-0010_LatLon0.15_PT042H.grib2 2026-04-28 04:09 709K
20260428T00Z_MSC_GDPS_WindU_IsbL-0020_LatLon0.15_PT042H.grib2 2026-04-28 04:09 739K
20260428T00Z_MSC_GDPS_WindU_IsbL-0030_LatLon0.15_PT042H.grib2 2026-04-28 04:09 745K
20260428T00Z_MSC_GDPS_WindU_IsbL-0050_LatLon0.15_PT042H.grib2 2026-04-28 04:09 775K
20260428T00Z_MSC_GDPS_WindU_IsbL-0100_LatLon0.15_PT042H.grib2 2026-04-28 04:09 930K
20260428T00Z_MSC_GDPS_WindU_IsbL-0150_LatLon0.15_PT042H.grib2 2026-04-28 04:09 1.0M
20260428T00Z_MSC_GDPS_WindU_IsbL-0175_LatLon0.15_PT042H.grib2 2026-04-28 04:09 1.0M
20260428T00Z_MSC_GDPS_WindU_IsbL-0200_LatLon0.15_PT042H.grib2 2026-04-28 04:09 854K
20260428T00Z_MSC_GDPS_WindU_IsbL-0225_LatLon0.15_PT042H.grib2 2026-04-28 04:09 861K
20260428T00Z_MSC_GDPS_WindU_IsbL-0250_LatLon0.15_PT042H.grib2 2026-04-28 04:09 863K
20260428T00Z_MSC_GDPS_WindU_IsbL-0275_LatLon0.15_PT042H.grib2 2026-04-28 04:09 888K
20260428T00Z_MSC_GDPS_WindU_IsbL-0300_LatLon0.15_PT042H.grib2 2026-04-28 04:09 879K
20260428T00Z_MSC_GDPS_WindU_IsbL-0350_LatLon0.15_PT042H.grib2 2026-04-28 04:09 895K
20260428T00Z_MSC_GDPS_WindU_IsbL-0400_LatLon0.15_PT042H.grib2 2026-04-28 04:09 897K
20260428T00Z_MSC_GDPS_WindU_IsbL-0450_LatLon0.15_PT042H.grib2 2026-04-28 04:09 1.1M
20260428T00Z_MSC_GDPS_WindU_IsbL-0500_LatLon0.15_PT042H.grib2 2026-04-28 04:09 1.1M
20260428T00Z_MSC_GDPS_WindU_IsbL-0550_LatLon0.15_PT042H.grib2 2026-04-28 04:09 1.1M
20260428T00Z_MSC_GDPS_WindU_IsbL-0600_LatLon0.15_PT042H.grib2 2026-04-28 04:09 1.2M
20260428T00Z_MSC_GDPS_WindU_IsbL-0650_LatLon0.15_PT042H.grib2 2026-04-28 04:09 1.2M
20260428T00Z_MSC_GDPS_WindU_IsbL-0700_LatLon0.15_PT042H.grib2 2026-04-28 04:09 1.2M
20260428T00Z_MSC_GDPS_WindU_IsbL-0750_LatLon0.15_PT042H.grib2 2026-04-28 04:09 1.3M
20260428T00Z_MSC_GDPS_WindU_IsbL-0800_LatLon0.15_PT042H.grib2 2026-04-28 04:09 1.4M
20260428T00Z_MSC_GDPS_WindU_IsbL-0850_LatLon0.15_PT042H.grib2 2026-04-28 04:09 1.4M
20260428T00Z_MSC_GDPS_WindU_IsbL-0875_LatLon0.15_PT042H.grib2 2026-04-28 04:09 1.5M
20260428T00Z_MSC_GDPS_WindU_IsbL-0900_LatLon0.15_PT042H.grib2 2026-04-28 04:09 1.5M
20260428T00Z_MSC_GDPS_WindU_IsbL-0925_LatLon0.15_PT042H.grib2 2026-04-28 04:09 1.5M
20260428T00Z_MSC_GDPS_WindU_IsbL-0950_LatLon0.15_PT042H.grib2 2026-04-28 04:09 1.4M
20260428T00Z_MSC_GDPS_WindU_IsbL-0970_LatLon0.15_PT042H.grib2 2026-04-28 04:09 1.4M
20260428T00Z_MSC_GDPS_WindU_IsbL-0985_LatLon0.15_PT042H.grib2 2026-04-28 04:09 1.4M
20260428T00Z_MSC_GDPS_WindU_IsbL-1000_LatLon0.15_PT042H.grib2 2026-04-28 04:09 1.4M
20260428T00Z_MSC_GDPS_WindU_IsbL-1015_LatLon0.15_PT042H.grib2 2026-04-28 04:09 1.4M
20260428T00Z_MSC_GDPS_WindV_AGL-10m_LatLon0.15_PT042H.grib2 2026-04-28 04:09 1.3M
20260428T00Z_MSC_GDPS_WindV_AGL-120m_LatLon0.15_PT042H.grib2 2026-04-28 04:09 1.0M
20260428T00Z_MSC_GDPS_WindV_AGL-40m_LatLon0.15_PT042H.grib2 2026-04-28 04:09 1.0M
20260428T00Z_MSC_GDPS_WindV_AGL-80m_LatLon0.15_PT042H.grib2 2026-04-28 04:09 1.0M
20260428T00Z_MSC_GDPS_WindV_IsbL-0001_LatLon0.15_PT042H.grib2 2026-04-28 04:09 713K
20260428T00Z_MSC_GDPS_WindV_IsbL-0005_LatLon0.15_PT042H.grib2 2026-04-28 04:09 862K
20260428T00Z_MSC_GDPS_WindV_IsbL-0010_LatLon0.15_PT042H.grib2 2026-04-28 04:09 801K
20260428T00Z_MSC_GDPS_WindV_IsbL-0020_LatLon0.15_PT042H.grib2 2026-04-28 04:09 856K
20260428T00Z_MSC_GDPS_WindV_IsbL-0030_LatLon0.15_PT042H.grib2 2026-04-28 04:09 857K
20260428T00Z_MSC_GDPS_WindV_IsbL-0050_LatLon0.15_PT042H.grib2 2026-04-28 04:09 910K
20260428T00Z_MSC_GDPS_WindV_IsbL-0100_LatLon0.15_PT042H.grib2 2026-04-28 04:09 1.1M
20260428T00Z_MSC_GDPS_WindV_IsbL-0150_LatLon0.15_PT042H.grib2 2026-04-28 04:09 1.0M
20260428T00Z_MSC_GDPS_WindV_IsbL-0175_LatLon0.15_PT042H.grib2 2026-04-28 04:09 1.0M
20260428T00Z_MSC_GDPS_WindV_IsbL-0200_LatLon0.15_PT042H.grib2 2026-04-28 04:09 852K
20260428T00Z_MSC_GDPS_WindV_IsbL-0225_LatLon0.15_PT042H.grib2 2026-04-28 04:09 857K
20260428T00Z_MSC_GDPS_WindV_IsbL-0250_LatLon0.15_PT042H.grib2 2026-04-28 04:09 916K
20260428T00Z_MSC_GDPS_WindV_IsbL-0275_LatLon0.15_PT042H.grib2 2026-04-28 04:09 940K
20260428T00Z_MSC_GDPS_WindV_IsbL-0300_LatLon0.15_PT042H.grib2 2026-04-28 04:09 930K
20260428T00Z_MSC_GDPS_WindV_IsbL-0350_LatLon0.15_PT042H.grib2 2026-04-28 04:09 883K
20260428T00Z_MSC_GDPS_WindV_IsbL-0400_LatLon0.15_PT042H.grib2 2026-04-28 04:09 883K
20260428T00Z_MSC_GDPS_WindV_IsbL-0450_LatLon0.15_PT042H.grib2 2026-04-28 04:09 1.1M
20260428T00Z_MSC_GDPS_WindV_IsbL-0500_LatLon0.15_PT042H.grib2 2026-04-28 04:09 1.1M
20260428T00Z_MSC_GDPS_WindV_IsbL-0550_LatLon0.15_PT042H.grib2 2026-04-28 04:09 1.1M
20260428T00Z_MSC_GDPS_WindV_IsbL-0600_LatLon0.15_PT042H.grib2 2026-04-28 04:09 1.1M
20260428T00Z_MSC_GDPS_WindV_IsbL-0650_LatLon0.15_PT042H.grib2 2026-04-28 04:09 1.2M
20260428T00Z_MSC_GDPS_WindV_IsbL-0700_LatLon0.15_PT042H.grib2 2026-04-28 04:09 1.2M
20260428T00Z_MSC_GDPS_WindV_IsbL-0750_LatLon0.15_PT042H.grib2 2026-04-28 04:09 1.3M
20260428T00Z_MSC_GDPS_WindV_IsbL-0800_LatLon0.15_PT042H.grib2 2026-04-28 04:09 1.4M
20260428T00Z_MSC_GDPS_WindV_IsbL-0850_LatLon0.15_PT042H.grib2 2026-04-28 04:09 1.4M
20260428T00Z_MSC_GDPS_WindV_IsbL-0875_LatLon0.15_PT042H.grib2 2026-04-28 04:09 1.5M
20260428T00Z_MSC_GDPS_WindV_IsbL-0900_LatLon0.15_PT042H.grib2 2026-04-28 04:09 1.5M
20260428T00Z_MSC_GDPS_WindV_IsbL-0925_LatLon0.15_PT042H.grib2 2026-04-28 04:09 1.5M
20260428T00Z_MSC_GDPS_WindV_IsbL-0950_LatLon0.15_PT042H.grib2 2026-04-28 04:09 1.4M
20260428T00Z_MSC_GDPS_WindV_IsbL-0970_LatLon0.15_PT042H.grib2 2026-04-28 04:09 1.4M
20260428T00Z_MSC_GDPS_WindV_IsbL-0985_LatLon0.15_PT042H.grib2 2026-04-28 04:09 1.4M
20260428T00Z_MSC_GDPS_WindV_IsbL-1000_LatLon0.15_PT042H.grib2 2026-04-28 04:09 1.4M
20260428T00Z_MSC_GDPS_WindV_IsbL-1015_LatLon0.15_PT042H.grib2 2026-04-28 04:09 1.4M